Date String (YYYY-MM-DD hh:mm:ss) UTC,Instrument flags,absolute air pressure of the measurement (hPa),sample flow rate (lpm),inlet stack bypass flow (lpm),air temperature of the measurement (°C),ambient temperature measured by the external sensor (°C),aerosol sample conditioner tube jacket temperature (°C),OPC LED temperature (°C),internal box temperature (°C),relative humidity of the measurement (%),span deviation,mass concentration of particles derived from Lorenz-Mie calculation of OPC scattering (μg/m³),mass concentration of particles derived from Lorenz-Mie calculation of OPC scattering (μg/m³),mass concentration of particles derived from Lorenz-Mie calculation of OPC scattering (μg/m³)
DateTimeUTC,F1_M11,P_M11,Q1_M11,Q2_M11,T1_M11,T2_M11,T3_M11,T4_M11,T5_M11,U1_M11,ZSPAN_M11,X0_M11,X2_M11,X1_M11
2023-12-27 22:00:00,SystemResetWarning,0831.1,5.01,000.00,023.4,022.7,000.0,031.6,024.7,7.7,0000.0,0002.63,0000.40,0000.22
2023-12-27 22:01:00,SystemResetWarning,0831.1,5.00,000.00,023.4,022.7,000.0,031.6,024.7,7.7,0000.0,0002.60,0000.38,0000.22
2023-12-27 22:02:00,SystemResetWarning,0831.1,5.00,000.00,023.4,022.7,000.0,031.6,024.7,7.9,0000.0,0002.66,0000.36,0000.22
2023-12-27 22:03:00,SystemResetWarning,0831.1,5.00,000.00,023.5,022.7,000.0,031.7,024.8,7.9,0000.0,0002.47,0000.36,0000.22
2023-12-27 22:04:00,SystemResetWarning,0831.1,5.00,000.00,023.5,022.7,000.0,031.7,024.8,7.7,0000.0,0003.19,0000.36,0000.22
2023-12-27 22:05:00,SystemResetWarning,0831.1,4.99,000.00,023.5,022.7,000.0,031.7,024.7,7.7,0000.0,0003.01,0000.37,0000.22
2023-12-27 22:06:00,SystemResetWarning,0831.2,5.00,000.00,023.5,022.8,000.0,031.7,024.8,7.7,0000.0,0003.39,0000.38,0000.21
2023-12-27 22:07:00,SystemResetWarning,0831.2,5.00,000.00,023.5,022.8,000.0,031.7,024.8,7.6,0000.0,0003.96,0000.39,0000.22
2023-12-27 22:08:00,SystemResetWarning,0831.2,5.00,000.00,023.5,022.8,000.0,031.7,024.8,7.6,0000.0,0004.35,0000.41,0000.22
2023-12-27 22:09:00,SystemResetWarning,0831.2,5.01,000.00,023.5,022.8,000.0,031.7,024.8,7.7,0000.0,0004.67,0000.43,0000.22
2023-12-27 22:10:00,SystemResetWarning,0831.2,5.00,000.00,023.5,022.8,000.0,031.7,024.8,7.8,0000.0,0004.77,0000.44,0000.22
2023-12-27 22:11:00,SystemResetWarning,0831.3,5.00,000.00,023.5,022.8,000.0,031.7,024.8,7.8,0000.0,0004.94,0000.47,0000.22
2023-12-27 22:12:00,SystemResetWarning,0831.2,5.00,000.00,023.5,022.8,000.0,031.7,024.8,7.9,0000.0,0004.98,0000.48,0000.22
2023-12-27 22:13:00,SystemResetWarning,0831.2,4.99,000.00,023.5,022.8,000.0,031.7,024.8,7.9,0000.0,0005.40,0000.50,0000.22
2023-12-27 22:14:00,SystemResetWarning,0831.3,5.00,000.00,023.5,022.8,000.0,031.7,024.9,7.9,0000.0,0004.55,0000.51,0000.22
2023-12-27 22:15:00,SystemResetWarning,0831.3,5.00,000.00,023.5,022.8,000.0,031.7,024.9,8.0,0000.0,0003.47,0000.49,0000.22
2023-12-27 22:16:00,SystemResetWarning,0831.2,5.00,000.00,023.6,022.8,000.0,031.7,024.9,7.9,0000.0,0003.01,0000.45,0000.21
2023-12-27 22:17:00,SystemResetWarning,0831.2,5.00,000.00,023.6,022.8,000.0,031.8,024.9,7.9,0000.0,0002.87,0000.43,0000.21
2023-12-27 22:18:00,SystemResetWarning,0831.2,5.00,000.00,023.6,022.9,000.0,031.8,024.9,8.0,0000.0,0002.00,0000.42,0000.20
2023-12-27 22:19:00,SystemResetWarning,0831.2,5.00,000.00,023.6,022.9,000.0,031.8,024.9,8.0,0000.0,0001.99,0000.44,0000.21
2023-12-27 22:20:00,SystemResetWarning,0831.2,5.00,000.00,023.6,022.9,000.0,031.8,024.9,8.0,0000.0,0001.50,0000.42,0000.21
2023-12-27 22:21:00,SystemResetWarning,0831.2,5.00,000.00,023.6,022.9,000.0,031.8,024.9,7.9,0000.0,0001.46,0000.43,0000.21
2023-12-27 22:22:00,SystemResetWarning,0831.3,5.01,000.00,023.6,022.9,000.0,031.8,024.9,7.9,0000.0,0001.30,0000.40,0000.21
2023-12-27 22:23:00,SystemResetWarning,0831.3,5.00,000.00,023.6,022.9,000.0,031.8,024.9,7.9,0000.0,0001.15,0000.36,0000.21
2023-12-27 22:24:00,SystemResetWarning,0831.3,4.99,000.00,023.6,022.9,000.0,031.8,024.9,7.9,0000.0,0000.87,0000.33,0000.21
2023-12-27 22:25:00,SystemResetWarning,0831.2,5.00,000.00,023.6,022.9,000.0,031.8,024.9,7.9,0000.0,0000.75,0000.32,0000.21
2023-12-27 22:26:00,SystemResetWarning,0831.2,4.99,000.00,023.6,022.9,000.0,031.8,024.9,8.0,0000.0,0001.38,0000.32,0000.21
2023-12-27 22:27:00,SystemResetWarning,0831.3,5.00,000.00,023.6,022.9,000.0,031.8,024.9,7.9,0000.0,0001.85,0000.35,0000.23
2023-12-27 22:28:00,SystemResetWarning,0831.3,5.00,000.00,023.6,022.9,000.0,031.8,024.8,7.9,0000.0,0002.62,0000.40,0000.24
2023-12-27 22:29:00,SystemResetWarning,0831.2,5.00,000.00,023.6,022.9,000.0,031.8,024.8,8.0,0000.0,0002.93,0000.44,0000.23
2023-12-27 22:30:00,SystemResetWarning,0831.3,5.00,000.00,023.6,022.9,000.0,031.8,024.9,8.0,0000.0,0002.93,0000.44,0000.22
2023-12-27 22:31:00,SystemResetWarning,0831.3,5.00,000.00,023.6,022.9,000.0,031.8,024.9,8.0,0000.0,0002.90,0000.46,0000.22
2023-12-27 22:32:00,SystemResetWarning,0831.2,5.00,000.00,023.6,022.9,000.0,031.8,024.9,8.0,0000.0,0002.90,0000.44,0000.21
2023-12-27 22:33:00,SystemResetWarning,0831.3,5.01,000.00,023.6,022.9,000.0,031.8,024.9,8.1,0000.0,0003.15,0000.46,0000.21
2023-12-27 22:34:00,SystemResetWarning,0831.3,5.00,000.00,023.6,022.9,000.0,031.8,024.9,8.2,0000.0,0004.26,0000.47,0000.21
2023-12-27 22:35:00,SystemResetWarning,0831.3,4.99,000.00,023.6,022.9,000.0,031.9,024.9,8.1,0000.0,0004.24,0000.48,0000.22
2023-12-27 22:36:00,SystemResetWarning,0831.3,5.01,000.00,023.6,022.9,000.0,031.9,024.9,8.1,0000.0,0004.22,0000.49,0000.21
2023-12-27 22:37:00,SystemResetWarning,0831.3,5.01,000.00,023.6,022.9,000.0,031.9,024.9,8.1,0000.0,0004.02,0000.50,0000.20
2023-12-27 22:38:00,SystemResetWarning,0831.3,5.00,000.00,023.7,022.9,000.0,031.9,024.9,8.1,0000.0,0004.58,0000.49,0000.20
2023-12-27 22:39:00,SystemResetWarning,0831.3,4.99,000.00,023.7,022.9,000.0,031.9,024.9,8.1,0000.0,0003.86,0000.45,0000.20
2023-12-27 22:40:00,SystemResetWarning,0831.3,4.99,000.00,023.7,022.9,000.0,031.9,024.9,8.2,0000.0,0003.60,0000.42,0000.20
2023-12-27 22:41:00,SystemResetWarning,0831.3,5.00,000.00,023.7,022.9,000.0,031.9,024.9,8.2,0000.0,0003.55,0000.40,0000.20
2023-12-27 22:42:00,SystemResetWarning,0831.3,5.00,000.00,023.7,022.9,000.0,031.9,024.9,8.0,0000.0,0003.81,0000.38,0000.21
2023-12-27 22:43:00,SystemResetWarning,0831.3,5.01,000.00,023.7,022.9,000.0,031.9,024.9,8.1,0000.0,0003.93,0000.38,0000.22
2023-12-27 22:44:00,SystemResetWarning,0831.3,5.01,000.00,023.7,022.9,000.0,031.9,024.9,8.1,0000.0,0004.03,0000.37,0000.22
2023-12-27 22:45:00,SystemResetWarning,0831.3,5.01,000.00,023.7,022.9,000.0,031.9,024.9,8.1,0000.0,0002.88,0000.37,0000.23
2023-12-27 22:46:00,SystemResetWarning,0831.4,4.98,000.00,023.7,022.9,000.0,031.9,024.9,8.2,0000.0,0002.67,0000.36,0000.22
2023-12-27 22:47:00,SystemResetWarning,0831.3,5.01,000.00,023.7,022.9,000.0,031.9,024.9,8.2,0000.0,0002.74,0000.36,0000.23
2023-12-27 22:48:00,SystemResetWarning,0831.3,5.01,000.00,023.7,022.9,000.0,031.9,024.9,8.2,0000.0,0003.97,0000.39,0000.23
2023-12-27 22:49:00,SystemResetWarning,0831.3,4.98,000.00,023.7,022.9,000.0,031.9,024.9,8.1,0000.0,0003.16,0000.40,0000.23
2023-12-27 22:50:00,SystemResetWarning,0831.4,5.00,000.00,023.7,022.9,000.0,031.9,024.9,8.0,0000.0,0003.40,0000.41,0000.22
2023-12-27 22:51:00,SystemResetWarning,0831.4,5.00,000.00,023.7,022.9,000.0,031.9,024.9,8.0,0000.0,0003.47,0000.42,0000.22
2023-12-27 22:52:00,SystemResetWarning,0831.4,5.00,000.00,023.7,022.9,000.0,031.9,025.0,8.2,0000.0,0003.39,0000.41,0000.22
2023-12-27 22:53:00,SystemResetWarning,0831.4,5.01,000.00,023.7,022.9,000.0,031.9,025.0,8.1,0000.0,0003.11,0000.42,0000.22
2023-12-27 22:54:00,SystemResetWarning,0831.4,5.01,000.00,023.7,022.9,000.0,031.9,025.0,8.1,0000.0,0003.12,0000.45,0000.22
2023-12-27 22:55:00,SystemResetWarning,0831.3,4.99,000.00,023.7,022.9,000.0,031.9,025.0,8.1,0000.0,0003.00,0000.46,0000.23
2023-12-27 22:56:00,SystemResetWarning,0831.4,5.00,000.00,023.7,022.9,000.0,032.0,024.9,8.2,0000.0,0003.04,0000.47,0000.23
2023-12-27 22:57:00,SystemResetWarning,0831.4,5.00,000.00,023.7,022.9,000.0,032.0,024.9,8.2,0000.0,0003.09,0000.48,0000.23
2023-12-27 22:58:00,SystemResetWarning,0831.4,4.99,000.00,023.7,022.9,000.0,032.0,025.0,8.2,0000.0,0003.09,0000.48,0000.23
2023-12-27 22:59:00,SystemResetWarning,0831.5,5.00,000.00,023.7,022.9,000.0,032.0,025.0,8.1,0000.0,0002.02,0000.44,0000.24
